This is the latest recevied weather packets stored in our database for station/object N5RPG. If no packets are shown the sender has not sent any weather packets the latest 10 day(s).
| Time | Temp. | Humidity | Pressure | Rain* | Wind** | Luminosity | Snow |
|---|---|---|---|---|---|---|---|
| 1777328576 | 28.89° C | 76% | 1010.1 hPa | 0 mm | - | 97 W/m² | - |
| 1777328274 | 28.89° C | 76% | 1010.2 hPa | 0 mm | - | 63 W/m² | - |
| 1777327972 | 28.89° C | 76% | 1010.4 hPa | 0 mm | - | 97 W/m² | - |
| 1777327670 | 29.44° C | 76% | 1010.3 hPa | 0 mm | - | 130 W/m² | - |
| 1777327366 | 29.44° C | 76% | 1010.2 hPa | 0 mm | - | 136 W/m² | - |
| 1777327064 | 29.44° C | 74% | 1010.3 hPa | 0 mm | - | 150 W/m² | - |
| 1777326761 | 30° C | 74% | 1010.3 hPa | 0 mm | - | 153 W/m² | - |
| 1777326457 | 30° C | 73% | 1010.4 hPa | 0 mm | - | 211 W/m² | - |
| 1777326156 | 30.56° C | 73% | 1010.5 hPa | 0 mm | - | 156 W/m² | - |
| 1777325853 | 30.56° C | 72% | 1010.3 hPa | 0 mm | - | 437 W/m² | - |
| 1777325552 | 30° C | 74% | 1010.4 hPa | 0 mm | - | 591 W/m² | - |
| 1777325249 | 30° C | 74% | 1010.4 hPa | 0 mm | - | 226 W/m² | - |
| 1777324945 | 30.56° C | 73% | 1010.4 hPa | 0 mm | - | 208 W/m² | - |
| 1777324642 | 30.56° C | 73% | 1010.4 hPa | 0 mm | - | 320 W/m² | - |
| 1777324341 | 30° C | 74% | 1010.3 hPa | 0 mm | - | 301 W/m² | - |
| 1777324038 | 29.44° C | 74% | 1010.6 hPa | 0 mm | - | 317 W/m² | - |
| 1777323735 | 29.44° C | 74% | 1010.6 hPa | 0 mm | - | 206 W/m² | - |
| 1777323432 | 29.44° C | 74% | 1010.2 hPa | 0 mm | - | 226 W/m² | - |
| 1777323129 | 30° C | 74% | 1010.4 hPa | 0 mm | - | 249 W/m² | - |
| 1777322827 | 30° C | 73% | 1010.4 hPa | 0 mm | - | 752 W/m² | - |
| 1777322525 | 30° C | 74% | 1010.6 hPa | 0 mm | - | 318 W/m² | - |
| 1777322222 | 30° C | 74% | 1010.5 hPa | 0 mm | - | 370 W/m² | - |
| 1777321919 | 30° C | 74% | 1010.6 hPa | 0 mm | - | 387 W/m² | - |
| 1777321615 | 29.44° C | 72% | 1010.6 hPa | 0 mm | - | 321 W/m² | - |
| 1777321312 | 30° C | 75% | 1010.8 hPa | 0 mm | - | 338 W/m² | - |
* Rain latest hour (hover to see other rain measurements)
** Current wind speed in m/s (hover to see current wind gust speed)